Погода в Паневежисе

Поиск расширенной информации на нашем сайте:

Полезная информация:

Новости сайта



02.01.2020
Опубликован Долгосрочный прогноз погоды по городам России и ближнего зарубежья на январь 2020 года.
Карты: Прогноз на январь и февраль 2020 года, Сравнение прогнозируемой аномалии приземной температуры воздуха на январь 2020 года по разным моделям.




Погода в Паневежисе - сегодня

Время (UTC), дата Ветер
(°,м/с) 
Видим.   Явления Облачность Т
(°С)
Тd
(°С)
f(%) Тe
(°С)
Pmin
(гПа)
dP
(гПа)
Po
(мм)
O2
(г/м3)
Тmin Tmax R s Состояние
почвы
21 22.10.20 220 (ЮЗ) 3-6{10}  20000 м    3/0 
+11.9 +9.8 87 +13  1009.4  0.9  752  289           
00 23.10.20 200 (Ю) 3-4{07}  20000 м    9/9 300 м 
+12 +10.4 90 +14  1008.9  -0.5  751  288           
03 23.10.20 200 (Ю) 3-4{07}  20000 м    9/0 2000 м 
+11.7 +10 89 +12  1007.3  -1.6  750  288           
06 23.10.20 220 (ЮЗ) 5-7{08}  12000 м  в посл. час дождь  10/10 300 м 
+12 +10.9 93 +13  1005.9  -1.4  749  287  +11.3    0.8     
09 23.10.20 240 (ЮЗ) 6-10{10}  20000 м    8/8 1000 м 
+13.8 +10.3 79 +15  1006  0.1  749  285         
12 23.10.20 250 (З) 6-10{15}  20000 м    9/9 1500 м 
+14.3 +8.4 68 +14  1006.4  0.5  750  286      0.5     
15 23.10.20 250 (З) 4-8{13}  20000 м  в посл. час дождь  9/9 1000 м 
+12.1 +9.1 82 +12  1007.7  1.2  751  288      0.0     
18 23.10.20 230 (ЮЗ) 3-5{08}  20000 м    5/5 1000 м 
+10.8 +9.1 89 +10  1008.6  0.9  751  290    +15.5  0.5     
21 23.10.20 230 (ЮЗ) 2-4{07}  20000 м    9/9 1500 м 
+10.4 +9 91 +11  1009.5  0.8  752  290           
00 24.10.20 230 (ЮЗ) 3-4{05}  20000 м    10/10 1000 м 
+10.2 +8.6 90 +10  1009.2  -0.3  752  290           
03 24.10.20 180 (Ю) 2-3{04}  9000 м  слаб. дождь  9/0 
+9.2 +8.4 95 +9  1008.6  -0.6  751  291         
06 24.10.20 190 (Ю) 2-4{05}  8000 м  дымка  10/10 100 м 
+8.6 +7.9 95 +9  1008.7  0.1  751  292  +8.4       
09 24.10.20 240 (ЮЗ) 4-6{06}  20000 м    9/9 600 м 
+10.4 +8.8 90 +10  1009.1  0.4  752  290         
12 24.10.20 250 (З) 3-5{07}  19000 м    9/9 300 м 
+11.9 +9 82 +12  1009.2  0.2  752  289           
15 24.10.20 210 (ЮЗ) 1-3{06}  20000 м    6/6 1500 м 
+10.9 +8.9 87 +12  1009.4  0.1  752  290           
18 24.10.20 220 (ЮЗ) 5-9{09}  20000 м    9/9 600 м 
+10.9 +8.7 86 +10  1009.3  0.1  752  290    +11.9       
21 24.10.20 240 (ЮЗ) 4-6{09}  16000 м  в посл. час дождь  9/9 600 м 
+10.8 +9.4 91 +10  1010.1  0.8  752  290      0.7     
00 25.10.20 250 (З) 2-4{07}  18000 м    ясно 
+9.7 +8.4 92 +10  1011.8  1.7  754  292      0.7     
03 25.10.20 230 (ЮЗ) 2-3{05}  9000 м  дымка  9/0 
+9.1 +8.2 94 +9  1012.8  754  293           
06 25.10.20 220 (ЮЗ) 2-4{04}  7000 м  дымка  10/10 100 м 
+8.9 +8.3 96 +9  1014.2  1.4  755  293  +7.3    0.7     
09 25.10.20 230 (ЮЗ) 3-4{06}  14000 м    9/9 200 м 
+10.5 +8.8 89 +10  1015.3  1.1  756  292           
12 25.10.20 170 (Ю) 3-4{07}  18000 м    3/0 
+12.4 +9 80 +12  1015  -0.3  756  290      0.1     
15 25.10.20 170 (Ю) 2-3{06}  20000 м    ясно 
+11.8 +8.6 81 +12  1014.8  -0.2  756  290      0.1     
18 25.10.20 150 (ЮВ) 1-3{05}  15000 м    ясно 
+9.1 +7.9 92 +10  1015.1  0.3  756  293    +13.1  0.1     
21 25.10.20 150 (ЮВ) 2-4{04}  7000 м  дымка  ясно 
+8.1 +7.3 95 +8  1015.4  0.2  756  295           
Время (UTC), дата Ветер
(°,м/с) 
Видим.   Явления Облачность Т
(°С)
Тd
(°С)
f(%) Тe
(°С)
Pmin
(гПа)
dP
(гПа)
Po
(мм)
O2
(г/м3)
Тmin Tmax R s Состояние
почвы

Для получения пояснительной информации подведите курсор к названию столбца.

ПОГОДА в Паневежисе - архив

Всё, что Вы хотите узнать о погоде в Паневежисе - удобно и подробно!

Выберите нужную дату (начиная с 1 января 2019* года) и нажмите кнопку "Найти".
Будут отображены архивные сводки погоды по пункту Паневежис, начиная с указанной даты.


Отображать данные в формате CSV (для использования в таблицах Excel)


Внимание! Наш архив погоды предназначен исключительно для личного некоммерческого использования в познавательных целях. Если Вам необходимы официальные справки о состоянии погоды (для производственных, юридических, коммерческих и т.п. целей), обращайтесь в органы Росгидромета.

*Примечание: данная дата относится к архиву по метеостанциям СССР (Россия, СНГ, Балтия).
Архив по метеостанциям Зарубежной Европы и Азии (кроме Китая) хранится 10 дней, по другим регионам земного шара (Китай, Африка, Америка, Австралия, Океания) - 1 день.

Паневежис - район местоположения метеостанции


Название, широта, долгота, высота метеостанции:
Паневежис 55.8°ш. 24.4°д. 58 м над ур. моря [Литва]

Дополнительная информация

В oтличие oт бoльшинства пoгoдных сайтoв мы публикуем пoдрoбную метеoинфoрмацию в детальнoм прoфессиoнальнoм фoрмате.

Характеристики температуры и влажнoсти вoздуха измеряются на высoте 2 м в тени вдали oт зданий и деревьев.
Скoрoсть ветра измеряется на высoте 10 м (на урoвне рoста челoвека скoрoсть ветра ниже в 1.5-2 раза). Если метеoстанция нахoдится в гoрoде или в лесу, тo скoрoсть ветра занижена на 2-4 м/с пo сравнению с oткрытым местoм. Скoрoсть ветра над акватoриями крупных рек и oзёр, а также на вершинах хoлмoв на 2-5 м/с выше, чем в oбычных услoвиях.
Атмoсфернoе давление в разных тoчках местнoсти мoжет значительнo oтличаться oт давления на метеoстанции, в зависимoсти oт услoвий рельефа (при пoдъёме на 10 м давление пoнижается примернo на 1 мм рт.ст.).